星链-3618 (STARLINK-3618 )

导读

STARLINK-3618是美国太空探索技术公司(SpaceX)部署于近地轨道的星链卫星,于北京时间2022年3月9日发射。作为星链星座的组成部分,它主要为全球缺乏传统基础设施的偏远地区提供高速低延迟宽带互联网服务,目前仍在正常运行,助力实现星链网络的全球覆盖目标。

Basic Information
目录编号:
51998
目录名称:
STARLINK-3618
国际标识:
2022-025AU
轨道中心:
EARTH
卫星名称:
星链-3618
卫星全名:
星链-3618 (STARLINK-3618 )
卫星状态:
在轨 (已飞行1640 天)
发射日期:
2022-03-09 UTC
国别 :
美国 (US)
星等 :
--
Orbit Information
数据来源 国际轨道数据 AOE轨道数据
星历时间 2026-09-04T02:39:11+0800
10小时前
查看轨道信息
2026-09-04T03:00:00+0800
10小时前
查看轨道信息
半长轴 6840.878km 6840.856km
偏心率 0.0001131 0.0001517
轨道倾角 53.159° 53.159°
近地点辐角 69.633° 72.914°
升交点赤经 288.145° 288.075°
平近点角 290.479° 7.138°
近地点 461.967km 461.681km
远地点 463.515km 463.757km
周期 93.849分钟 93.848分钟
每日圈数 15.343875 15.343949
Detailed Information
固有亮度:
5
最大亮度:
2.5
卫星平台:
Starlink v1.5
覆盖范围:
全球
运营商:
太空探索技术公司
运营商所在国:
美国
制造商(研发单位):
太空探索技术公司
制造商所在国:
美国
使用方式:
暂无
Satellite Introduction
星链(Starlink)计划是由太空探索技术公司(SpaceX)提出的一个巨型低轨卫星互联网星座项目,计划在2019年至2024年间在太空搭建由约1.2万颗卫星组成的“星链”网络,其中1584颗将部署在地球上空550千米处的近地轨道,并从2020年开始工作。该卫星仍在工作。
2D Orbit Map
3D Orbit Map
Orbit Altitude Analysis Chart
Orbit Inclination Analysis Chart
Orbit Comprehensive Analysis Chart
View Comprehensive Chart
Conjunction Data List
Event ID Objects TCA Miss Dist (km) Collision Risk Probability Collision Risk Index (CRI) Action
CDM_260905-140805-199806-449721
2026-09-05T
14:08:32+0000
1.113 km
极远距离
1.158819E-5 中风险 0.56
CDM_260903-125305-199805-209022
2026-09-03T
12:53:30+0000
2.541 km
极远距离
1.116755E-6 低风险 0.36
CDM_260904-205605-199805-302521
2026-09-04T
20:56:22+0000
2.919 km
极远距离
9.185942E-7 极低风险 0.34